Location: Indian Springs
(36.5700°N, 115.6700°W)
Time: 00:16:27
(UTC-07:00)

Daily predictions for brighter satellites

Satellite Brightness Start Highest point End
(mag) Time Altitude Azimuth Time Altitude Azimuth Time Altitude Azimuth
CZ-4C R/B 4.3 03:25:40 29° NNE 03:27:34 33° NE 03:34:30 10° ESE
USA 267 4.4 03:25:27 10° ESE 03:29:27 36° E 03:29:27 36° E
ADEOS II 4.5 03:31:48 10° NE 03:33:24 18° NE 03:33:24 18° NE
Okean O Rocket 4.5 03:43:18 10° ENE 03:44:58 14° E 03:44:58 14° E
Cosmos 2369 Rocket 4.2 04:10:48 17° N 04:10:48 17° N 04:12:10 10° N
Cosmos 2327 Rocket 4.4 04:20:05 10° N 04:26:28 89° E 04:32:52 10° S
Cosmos 1833 4.3 04:33:08 59° N 04:34:06 73° ENE 04:39:41 10° SSE
GPS 2-04 Rocket1 4.4 04:41:41 29° ESE 04:41:41 29° ESE 04:43:37 10° ESE
H-2A R/B 4.3 04:46:16 22° SSW 04:46:16 22° SSW 04:48:36 10° S
Cosmos 1953 Rocket 3.8 04:46:20 64° ENE 04:46:20 64° ENE 04:50:22 10° NNE
SJ 16-02 3.4 04:45:07 10° SSE 04:48:48 27° E 04:52:30 10° NE
PAYLOAD B 4.3 04:44:15 10° NNE 04:49:47 78° ESE 04:55:12 10° S
Cosmos 1656 Rocket 3.5 04:51:02 67° WSW 04:51:42 76° WNW 04:57:24 10° NNE
OAO 2 Rocket 3.2 04:51:41 75° S 04:51:42 75° S 04:56:40 10° E
CZ-4B DEB 4.1 04:51:46 10° NNE 04:57:17 86° ESE 05:02:48 10° SSW
NOSS 3-1 (C) 3.2 04:57:55 39° SSW 05:00:09 89° ESE 05:06:26 10° NNE
USA 229 DEB 3.9 05:00:36 44° WNW 05:01:35 47° NW 05:08:14 10° NNE
USA 229 3.9 05:00:40 44° WNW 05:01:40 47° NW 05:08:19 10° NNE
Cosmos 1356 Rocket 3.9 05:00:03 10° S 05:04:15 63° E 05:08:30 10° NNE
Tiangong 2 2.2 05:05:12 42° ENE 05:05:12 42° ENE 05:07:44 10° E
NOSS 3-1 (A) 3.5 05:01:34 19° SSW 05:05:45 69° ESE 05:11:58 10° NE
Cosmos 1943 Rocket 3.7 05:11:02 20° NNW 05:11:02 20° NNW 05:13:42 10° N
CZ-4B R/B 3.1 05:07:15 10° N 05:12:43 76° WNW 05:18:16 10° SSW
Nadezhda 1 Rocket 4.4 05:12:06 38° W 05:13:00 40° WNW 05:18:57 10° N
CZ-3 R/B 3.8 05:00:06 28° W 05:14:10 48° SSW 05:22:42 10° SE
USA 267 3.6 05:08:34 10° SSE 05:14:42 43° SW 05:16:51 33° W
ADEOS II 3.4 05:11:38 10° N 05:14:20 23° NW 05:14:20 23° NW
CZ-4C R/B 3.0 05:10:58 19° NW 05:16:34 60° WSW 05:24:28 10° SSE
Cosmos 44 3.6 05:17:44 41° WSW 05:17:44 41° WSW 05:22:07 10° S
Milstar 3 3.5 05:16:48 27° SW 05:19:44 41° S 05:27:08 10° ESE
Meteor PRIRODA 3.5 05:18:17 10° N 05:22:01 67° WNW 05:23:48 29° SSW
Okean O Rocket 2.0 05:18:16 10° N 05:22:25 41° WNW 05:22:26 41° WNW
Shenzhou-11 Module 2.2 05:26:13 56° SSW 05:26:13 56° SSW 05:29:04 10° SE
CZ-2C R/B 3.8 05:23:29 10° SSE 05:28:15 84° ENE 05:33:00 10° NNW
Cosmos 372 Rocket 4.0 05:23:27 10° SSW 05:28:39 86° ESE 05:33:54 10° NNE
Cosmos 1758 Rocket 4.3 05:32:45 32° W 05:32:48 32° WNW 05:36:50 10° NNW
IRS-1C Rocket 4.2 05:29:38 10° N 05:34:45 52° WNW 05:39:50 10° SSW
Okean-O 3.2 05:31:47 10° NNE 05:36:11 60° E 05:40:32 10° S
Cosmos-2242 2.9 05:32:13 10° NNW 05:36:29 67° W 05:40:45 10° S
Cosmos 1125 Rocket 3.4 05:33:53 10° SSW 05:39:05 68° WNW 05:44:22 10° NNE
Cosmos 44 Rocket 4.2 05:38:35 26° W 05:39:18 27° WSW 05:43:26 10° SSW
ERBS 4.2 05:38:51 10° NNW 05:41:54 28° NE 05:44:57 10° ESE
NOAA 6 4.2 05:39:33 10° NNE 05:44:44 75° ESE 05:49:52 10° S
Meteor 1-24 Rocket 3.8 05:39:24 10° S 05:45:27 84° W 05:51:26 10° N
Cosmos 2366 rocket 4.2 05:40:24 10° N 05:46:33 75° E 05:52:43 10° SSE
Cosmos 1674 4.3 05:46:19 10° SSE 05:49:46 36° E 05:53:13 10° NNE
COSMO-SKYMED 1 3.1 05:46:04 10° SSE 05:50:20 61° ENE 05:54:38 10° N
MTI 3.7 05:47:50 10° S 05:51:03 73° WSW 05:54:19 10° NNW
Meteor 1-31 Rocket 3.5 05:49:17 10° N 05:52:39 31° WNW 05:56:01 10° SW
Cosmos 2227 Rocket 3.6 05:49:56 10° N 05:55:16 40° ENE 06:00:33 10° SE
SL-8 Rocket 4.0 05:54:03 10° NNW 06:00:16 62° W 06:06:28 10° S
Feng Yun 1-1 Rocket 4.2 05:56:23 10° N 06:01:59 71° WNW 06:07:43 10° SSW
Cosmos 1842 Rocket 3.4 06:04:05 10° N 06:08:27 76° W 06:12:45 10° S
Cosmos 2221 3.9 06:04:16 10° N 06:08:28 43° E 06:12:38 10° SSE
Cosmos 1048 Rocket 4.1 06:06:39 10° NNW 06:11:45 57° WSW 06:16:52 10° S
Cosmos 864 Rocket 4.5 06:10:44 10° NNW 06:16:51 65° W 06:22:54 10° S
NOSS 2-3 (D) 4.4 06:13:57 10° SSW 06:18:27 63° ESE 06:23:32 10° NE
GPS 2-04 Rocket1 3.9 06:16:07 10° W 06:19:18 26° SSW 06:22:24 10° SE
Cosmos 2219 3.6 06:15:56 10° NW 06:21:12 41° WSW 06:26:26 10° S
Cosmos 1908 3.3 06:18:01 10° N 06:21:52 81° E 06:25:40 10° S
EO 1 Del DPAF 3.8 06:18:48 10° SSW 06:22:18 35° W 06:25:51 10° NNW
CZ-2C R/B 2.7 06:17:54 10° NNE 06:22:53 78° ESE 06:27:59 10° S
Cosmos 2084 Rocket 3.4 06:20:07 10° SSW 06:24:30 89° ESE 06:28:39 10° NNE
Cosmos 2218 Rocket 4.3 06:19:17 10° NNW 06:25:11 46° W 06:31:09 10° SSW
SJ 16-02 2.5 06:23:50 10° WSW 06:27:20 23° WNW 06:30:50 10° NNW
Okean 3 Rocket 3.8 06:24:07 10° S 06:28:35 79° E 06:33:03 10° N
GP-B 4.1 06:25:33 10° SSE 06:29:51 53° E 06:34:11 10° N
